Flag for Germany Weather past 2 weeks in Gladbeck, North Rhine-Westphalia, Germany

Now
82 °F

Passing clouds.


Feels Like: 85 °F
Forecast: 68 / 87 °F
Wind: 3 mph from Northeast

Location: Duesseldorf

Current Time: Jul 3, 2015 at 12:23:08 AM

Latest Report: Jul 2, 2015 at 10:00 PM


Visibility: 17 mi

Pressure: 30.06 "Hg

Humidity: 62%

Dew point: 68 °F

Location of GladbeckLocation

Historic Weather in Gladbeck — Graph

°F

Gladbeck temperature yesterday

Maximum temperature yesterday: 98 °F (at 4:00 PM)
Minimum temperature yesterday: 78 °F (at 6:00 AM)
Average temperature yesterday: 87 °F

Past Weeks' High & Low Weather Summary

 TemperatureHumidityPressure
High98 °F (Jul 2, 4:00 PM)98% (Jun 22, 10:00 PM)30.21 "Hg (Jun 22, 10:00 PM)
Low49 °F (Jun 23, 4:00 AM)26% (Jul 1, 6:00 PM)29.72 "Hg (Jun 22, 8:00 PM)
Average65 °F67%30.06 "Hg
* Reported Jun 17 10:00 PM — Jul 2 10:00 PM, Gladbeck, Weather by CustomWeather, © 2015

Note: Actual official high and low records may vary slightly from our data, if they occured in-between our weather recording intervals... More about our weather records

Advertising

Gladbeck weather history for previous 24 hours

 ConditionsComfort  
Time TempWeatherWind HumidityBarometerVisibility
10:00 PM
Thu, Jul 2
82 °FPassing clouds.3 mph62%30.06 "Hg17 mi
9:00 PM87 °FPartly sunny.6 mph56%30.05 "Hg19 mi
8:00 PM93 °FScattered clouds.5 mph38%30.02 "Hg25 mi
7:00 PM94 °FScattered clouds.6 mph35%30.02 "Hg25 mi
6:00 PM97 °FPassing clouds.7 mph33%30.01 "Hg25 mi
5:00 PM97 °FPassing clouds.8 mph34%30.02 "Hg25 mi
4:00 PM98 °FPassing clouds.7 mph30%30.02 "Hg25 mi
3:00 PM97 °FSunny.6 mph32%30.02 "Hg25 mi
2:00 PM95 °FSunny.5 mph34%30.03 "Hg25 mi
1:00 PM94 °FSunny.6 mph36%30.03 "Hg28 mi
12:00 PM91 °FSunny.5 mph38%30.05 "Hg31 mi
11:00 AM88 °FSunny.6 mph41%30.04 "Hg31 mi
10:00 AM86 °FSunny.7 mph43%30.05 "Hg31 mi
9:00 AM83 °FSunny.7 mph46%30.05 "Hg31 mi
8:00 AM81 °FSunny.7 mph48%30.04 "Hg31 mi
7:00 AM79 °FSunny.6 mph49%30.04 "Hg31 mi
6:00 AM78 °FSunny.5 mph50%30.04 "Hg31 mi
4:00 AM78 °FClear.6 mph49%30.03 "Hg31 mi
3:00 AM79 °FClear.5 mph47%30.04 "Hg31 mi
2:00 AM79 °FClear.5 mph47%30.04 "Hg31 mi
1:00 AM81 °FClear.6 mph45%30.03 "Hg31 mi
12:00 AM83 °FClear.5 mph41%30.02 "Hg31 mi
Weather by CustomWeather, © 2015

See weather overviewHow to use our weather pages